Weather in Khachemziy

Russia / Republic of Adygea     44°57′11″N   40°18′52″E
temp.,
°C
wind,
m/s
gust,
m/s
humid.,
%
clouds,
%
prec.,
mm/h
press.,
hPa
HPBL,
m
2 august, mon
mon200:00+24ssw11490 0.0 101012
03:00+22sw34610 0.0 101044
06:00+21sw35705 0.0 1011129
09:00+29wsw32401 0.0 1011570
12:00+35ne33280 0.0 10101746
15:00+37ene32230 0.0 10082990
18:00+36e33245 0.0 10082331
21:00+27sse22440 0.0 100918
3 august, tue
tue300:00+25sw47540 0.0 1009105
03:00+22wsw47700 0.0 1010151
06:00+22sw36710 0.0 1011174
09:00+30wsw44420 0.0 1011615
12:00+36wnw32280 0.0 10101910
15:00+38n322044 0.0 10093824
18:00+34sse57299 0.0 1009401
21:00+28sw234141 0.0 101046
4 august, wed
wed400:00+25nnw24490 0.0 101254
03:00+23sw34600 0.0 101267
06:00+22wsw34640 0.0 1013106
09:00+30wnw33444 0.0 1013673
12:00+36nnw332655 0.0 10121833
15:00+38nnw432158 0.0 10113977
18:00+36nne562323 0.0 1010986
21:00+26nne410476 0.1 1013256
5 august, thu
thu500:00+24nne25570 0.0 101395
03:00+22ene227116 0.1 101433
06:00+22ese237297 0.0 1014102
09:00+29e33466 0.0 1014620
12:00+34ene44320 0.0 10121975
15:00+37e422719 0.0 10113298
18:00+35e652832 0.0 10092093
21:00+30ne484288 0.1 1010187
6 august, fri
fri600:00+25ene48534 0.3 1009142
03:00+23e47570 0.3 1008116
06:00+23ese36582 0.0 1009141
09:00+31e46355 0.0 1008821
12:00+37e7824100 0.0 10062058
15:00+38e7822100 0.0 10042291
18:00+36e6824100 0.0 10041493
21:00+29e4133694 0.0 1004251